This demonstration page uses our WeatherBlox Daily Observations layout. Learn more.

38.89511, -77.03637

Hourly Observations for January 27, 2016

Temp ( °F °C ) Dew Point ( °F °C ) Humidity (%) Winds ( mph kmh ) Pressure ( in mb ) Visibility ( mi km ) Precip ( " mm )
12:52 am 00:52 Mostly Cloudy 47 8.3 35 1.7 63 63 SW 5 7 29.99 1016 10 16.0934 0 0
1:52 am 01:52 Cloudy 47 8.3 37 2.8 69 69 NW 6 9 30.02 1017 10 16.0934 0 0
2:52 am 02:52 Cloudy 44 6.7 34 1.1 68 68 NNW 13 20 30.03 1017 10 16.0934 0 0.0254
3:52 am 03:52 Cloudy with Light Rain 41 5 33 0.6 73 73 NNW 15 24 30.04 1017 10 16.0934 0 0.0254
4:52 am 04:52 Cloudy 40 4.4 31 -0.6 70 70 NNW 12 19 30.06 1018 10 16.0934 0 0.0254
5:52 am 05:52 Cloudy 40 4.4 30 -1.1 68 68 NNW 13 20 30.09 1019 10 16.0934 0 0
6:52 am 06:52 Cloudy 40 4.4 28 -2.2 63 63 NNW 10 17 30.13 1020 10 16.0934 0 0
7:52 am 07:52 Cloudy 39 3.9 28 -2.2 65 65 NNW 10 17 30.15 1021 10 16.0934 0 0
8:52 am 08:52 Cloudy 39 3.9 28 -2.2 65 65 NNW 8 13 30.17 1022 10 16.0934 0 0
9:52 am 09:52 Cloudy 40 4.4 27 -2.8 60 60 NNW 13 20 30.2 1023 10 16.0934 0 0
10:52 am 10:52 Cloudy 41 5 23 -5 49 49 NW 16 26 30.22 1023 10 16.0934 0 0
11:52 am 11:52 Partly Cloudy 42 5.6 23 -5 47 47 WNW 10 17 30.21 1023 10 16.0934 0 0
12:52 pm 12:52 Partly Cloudy 42 5.6 23 -5 47 47 NNW 16 26 30.18 1022 10 16.0934 0 0
1:52 pm 13:52 Partly Cloudy 42 5.6 23 -5 47 47 NNW 10 17 30.16 1021 10 16.0934 0 0
2:52 pm 14:52 Partly Cloudy 42 5.6 25 -3.9 51 51 N 13 20 30.16 1021 10 16.0934 0 0
3:52 pm 15:52 Partly Cloudy 42 5.6 20 -6.7 41 41 NW 12 19 30.16 1022 10 16.0934 0 0
4:52 pm 16:52 Mostly Cloudy 40 4.4 18 -7.8 41 41 NW 9 15 30.18 1022 10 16.0934 0 0
5:52 pm 17:52 Mostly Cloudy 39 3.9 19 -7.2 45 45 NNW 10 17 30.18 1022 10 16.0934 0 0
6:52 pm 18:52 Partly Cloudy 38 3.3 19 -7.2 46 46 NNW 8 13 30.18 1022 10 16.0934 0 0
7:52 pm 19:52 Mostly Cloudy 37 2.8 20 -6.7 50 50 N 7 11 30.18 1022 10 16.0934 0 0
8:52 pm 20:52 Partly Cloudy 35 1.7 21 -6.1 57 57 N 9 15 30.17 1022 10 16.0934 0 0
9:52 pm 21:52 Mostly Cloudy 34 1.1 20 -6.7 56 56 N 5 7 30.17 1022 10 16.0934 0 0
10:52 pm 22:52 Partly Cloudy 34 1.1 20 -6.7 56 56 Calm 30.18 1022 10 16.0934 0 0
11:52 pm 23:52 Mostly Clear 31 -0.6 21 -6.1 67 67 Calm 30.16 1021 10 16.0934 0 0

Powered by AerisWeather